IRIDIUM 119

Last updated on Fri Sep 11 2026 00:03:06 GMT+0000 (Coordinated Universal Time)

1 42959U 17061E 26253.31405924 .00000172 00000+0 54351-4 0 9991 2 42959 86.4028 349.6765 0002286 94.5375 265.6082 14.34217187467015
UTC large
Height (km)
Speed (km/s)
/
Latitude / Longitude
Inclination (degrees)
Orbital Period (minutes)
Azimuth
Elevation
Range (km)
Doppler Factor

Next 0 passes for location: London (51.5072 / 0.1276)

No passes found over London.
IRIDIUM 119